Voltar ao catálogo

STARLINK-5578

AtivoComunicaçõesVLEO
NORAD 55374·PAYLOAD·🇺🇸 United States

Lançado Jan 26, 2023 de Cape Canaveral Space Force Station

Loading…

Próximas Passagens (próximas 24 horas)

TLE

AtualizadoSource: CelesTrak SupGP

Época: Sep 14, 2026, 21:00 UTC

1 55374C 23013AV  26257.87548611 -.00033889  00000+0 -12274-2 0  2572
2 55374  43.0044 333.4144 0002220 282.5484  59.9687 15.27595923    15

Acompanhe STARLINK-5578 em tempo real com AllMySat

Download on the App Store